{"data":{"norad_id":63972,"intl_designator":"2025-099W","name":"STARLINK-34115","alt_names":[],"object_type":"PAYLOAD","status":"ACTIVE","operator":null,"country":"US","launch_date":"2025-05-13","launch_site_code":"AFETR","launch_vehicle":null,"mission":null,"orbit_class":"UNKNOWN","rcs_meters":null,"size_class":null,"mass_kg":null,"dimensions":null,"purposes":["comms"],"wikipedia_slug":null,"has_3d_model":false,"image_url":null,"decayed_at":null,"tle_current":{"epoch":"2026-09-20T09:08:13.928064Z","epoch_age_seconds":154042,"freshness":"FRESH","line1":"1 63972U 25099W   26263.38071676  .00011073  00000+0  41122-3 0  9993","line2":"2 63972  42.9984 153.0750 0001457 286.9051  73.1640 15.27584824 77151","mean_motion":15.27584824,"eccentricity":0.0001457,"inclination_deg":42.9984,"raan_deg":153.075,"arg_perigee_deg":286.9051,"mean_anomaly_deg":73.164,"bstar":0.00041122,"rev_number":7715,"period_min":94.266451026225,"perigee_km":482.03497857665,"apogee_km":484.03432399583,"semimajor_km":6861.1716512862,"source":"CELESTRAK","updated_at":"2026-09-21T09:00:35.177937Z"}}}